Topeka Forbes, KS

5:31 PM CST on February 22, 2018 (GMT -0600)
Forbes

Weather History for KFOE - January, 2013

Change the Weather History Date:

Saturday, January 26, 2013

  Actual Average Record
Temperature  
Mean Temperature 42 °F -  
Max Temperature 57 °F 38 °F 66 °F (2015)
Min Temperature 27 °F 17 °F -9 °F (1991)
Degree Days  
Heating Degree Days 23    
Moisture  
Dew Point 23 °F    
Average Humidity 52    
Maximum Humidity 78    
Minimum Humidity 24    
Precipitation  
Precipitation 0.00 in - - ()
Sea Level Pressure  
Sea Level Pressure 30.19 in    
Wind  
Wind Speed 6 mph (SE)    
Max Wind Speed 15 mph    
Max Gust Speed 22 mph    
Visibility 10 miles    
Events Rain    
Averages and records for this station are not official NWS values.
T = Trace of Precipitation, MM = Missing Value Source: NWS Daily Summary

Daily Weather History Graph

Daily Weather History Graph

Search for Another Location

Airport or City:

Trip Planner

Search our weather history database for the weather conditions in past years. The results will help you decide how hot, cold, wet, or windy it might be!

Date:

Astronomy

Jan. 26, 2013 Rise Set
Actual Time 7:33 AM CST 5:37 PM CST
Civil Twilight 7:05 AM CST 6:05 PM CST
Nautical Twilight 6:32 AM CST 6:38 PM CST
Astronomical Twilight 6:01 AM CST 7:09 PM CST
Moon 5:32 PM CST (1/26) 6:52 AM CST (1/26)
Length of Visible Light 11h 00m
Length of Day
10h 03m
Full, 100% of the Moon is Illuminated
Jan 26
Full
Jan 26
Full
Feb 3
Last Quarter
Feb 10
New
Feb 17
First Quarter

Hourly Weather History & Observations

Time (CST) Temp. Windchill Dew Point Humidity Pressure Visibility Wind Dir Wind Speed Gust Speed Precip Events Conditions
12:53 AM 27.0 °F 23.0 °F 19.9 °F 75% 30.26 in 10.0 mi South 3.5 mph - N/A   Clear
1:53 AM 28.0 °F - 21.9 °F 78% 30.26 in 10.0 mi Calm Calm - N/A   Clear
2:53 AM 28.9 °F - 21.9 °F 75% 30.26 in 10.0 mi Calm Calm - N/A   Clear
3:53 AM 28.9 °F - 21.9 °F 75% 30.25 in 10.0 mi Calm Calm - N/A   Clear
4:53 AM 30.0 °F - 21.9 °F 72% 30.24 in 10.0 mi Calm Calm - N/A   Clear
5:53 AM 28.0 °F - 21.9 °F 78% 30.25 in 6.0 mi Calm Calm - N/A   Haze
6:53 AM 28.0 °F 21.7 °F 21.0 °F 75% 30.27 in 10.0 mi ESE 5.8 mph - N/A   Clear
7:53 AM 28.9 °F 23.9 °F 21.9 °F 75% 30.27 in 10.0 mi ESE 4.6 mph - N/A   Clear
8:53 AM 33.1 °F 27.7 °F 24.1 °F 70% 30.27 in 10.0 mi ESE 5.8 mph - N/A   Clear
9:53 AM 39.9 °F 35.1 °F 25.0 °F 55% 30.28 in 10.0 mi SE 6.9 mph - N/A   Clear
10:53 AM 46.0 °F 40.2 °F 25.0 °F 44% 30.28 in 10.0 mi SSE 12.7 mph - N/A   Clear
11:53 AM 51.1 °F - 24.1 °F 35% 30.25 in 10.0 mi SSE 13.8 mph 19.6 mph N/A   Mostly Cloudy
12:53 PM 54.0 °F - 23.0 °F 30% 30.19 in 10.0 mi SSE 12.7 mph - N/A   Clear
1:53 PM 57.0 °F - 21.0 °F 25% 30.15 in 10.0 mi SSE 15.0 mph 21.9 mph N/A   Clear
2:53 PM 57.9 °F - 21.0 °F 24% 30.14 in 10.0 mi SSE 15.0 mph - N/A   Clear
3:53 PM 57.9 °F - 21.9 °F 25% 30.12 in 10.0 mi SSE 12.7 mph - N/A   Clear
4:53 PM 55.0 °F - 23.0 °F 29% 30.11 in 10.0 mi SSE 13.8 mph - N/A   Clear
5:53 PM 50.0 °F - 24.1 °F 36% 30.10 in 10.0 mi SE 9.2 mph - N/A   Clear
6:53 PM 48.0 °F - 24.1 °F 39% 30.12 in 10.0 mi SE 10.4 mph - N/A   Clear
8:53 PM 45.0 °F 40.6 °F 25.0 °F 46% 30.09 in 10.0 mi SE 8.1 mph - N/A   Clear
9:53 PM 46.0 °F 41.0 °F 25.0 °F 44% 30.06 in 10.0 mi SE 10.4 mph - N/A   Scattered Clouds
10:53 PM 46.0 °F 41.9 °F 25.0 °F 44% 30.06 in 10.0 mi SSE 8.1 mph - N/A   Overcast
11:53 PM 45.0 °F 38.9 °F 30.9 °F 58% 30.05 in 10.0 mi SSE 12.7 mph - 0.00 in Rain Light Rain